GALAXY 17 (G-17)

Last updated on Sun Apr 12 2026 00:02:51 GMT+0000 (Coordinated Universal Time)

1 31307U 07016B 26101.50387733 -.00000202 00000+0 00000+0 0 9997 2 31307 2.8025 80.7143 0004130 316.1384 259.2684 1.00271574 69132
UTC large
Height (km)
Speed (km/s)
/
Latitude / Longitude
Inclination (degrees)
Orbital Period (minutes)
Azimuth
Elevation
Range (km)
Doppler Factor

Next 0 passes for location: London (51.5072 / 0.1276)

Sorry there are no passes over London.
GALAXY 17 (G-17)